Theta_e
312 311 311 308 308 313 314 316 317 316 314 316 317 317 315 313 309 312 313 310 308 307 308 311 315 332 334 334 333 332 333 331 332 334 335 333 332 331 330 331 331 331 331 330
314 313 308 308 309 311 312 314 314 313 311 314 312 314 312 312 311 307 308 306 307 306 303 309 314 322 331 332 332 333 333 333 333 334 334 333 332 331 330 330 330 330 331 331
314 311 309 309 309 310 309 311 312 313 310 310 308 306 308 307 309 307 307 307 306 304 302 305 305 307 316 324 328 330 332 333 333 333 333 333 333 332 331 331 330 331 332 331
310 309 311 310 309 308 310 308 308 309 312 314 303 308 304 305 307 305 306 304 302 303 302 300 300 301 303 307 315 322 328 332 332 333 333 333 333 333 332 331 330 330 331 331
309 309 310 312 311 308 309 309 308 307 306 305 304 303 303 302 304 304 302 304 301 299 298 296 296 297 299 303 307 314 323 328 329 332 333 333 333 333 333 332 331 331 331 331
306 305 308 310 309 308 307 307 306 305 306 309 304 302 302 302 302 303 305 303 300 298 296 295 295 295 295 298 302 306 314 317 321 325 329 331 332 333 332 332 332 332 331 331
306 307 306 308 310 309 306 308 311 309 305 308 302 302 302 303 306 304 304 301 298 297 295 294 292 291 292 293 296 299 303 308 314 317 321 323 327 330 331 331 331 331 331 331
304 310 307 307 310 310 306 307 309 304 304 307 303 305 303 305 303 301 300 298 297 295 293 292 290 289 290 291 293 296 299 301 305 311 314 315 319 323 326 328 328 327 326 325
305 305 306 308 308 308 309 307 304 305 296 307 306 303 305 306 304 301 299 297 295 293 292 290 288 288 289 290 291 293 296 298 300 304 308 310 311 313 314 316 320 320 318 316
305 307 306 308 308 308 308 305 308 303 304 306 306 305 303 308 306 302 300 297 295 293 290 289 287 287 288 289 290 292 293 295 296 299 303 305 305 306 308 308 310 312 312 310
302 302 307 308 308 309 308 307 306 304 304 305 305 305 307 307 305 304 300 297 295 292 290 287 287 287 287 288 289 290 292 293 295 297 299 300 301 302 304 304 303 306 306 307
304 302 307 308 306 306 307 308 307 306 304 303 307 305 305 304 303 302 300 297 294 291 288 286 286 286 286 286 287 288 289 290 292 294 296 297 297 298 299 300 298 301 302 302
304 300 303 306 304 304 309 308 309 308 306 305 305 304 304 303 303 301 299 295 293 290 288 286 286 285 285 285 286 287 288 288 290 292 293 293 294 295 295 295 295 297 298 296
301 300 298 300 301 301 306 308 306 301 301 307 305 305 306 304 303 302 300 296 292 290 288 286 285 285 285 285 285 286 286 287 288 290 290 290 290 290 290 290 291 291 291 291
297 298 300 299 299 301 300 305 307 307 304 301 303 306 305 303 301 300 301 295 292 290 288 286 286 284 284 284 285 285 285 286 287 287 287 287 287 287 287 288 288 288 288 288
297 295 294 296 296 300 300 301 302 298 298 298 299 301 301 299 299 299 299 296 294 292 290 288 286 285 285 284 284 285 285 285 286 286 286 286 286 286 286 286 286 287 287 287
295 290 290 293 291 292 294 296 302 302 301 297 299 300 298 300 300 300 299 296 295 293 290 288 286 286 285 285 284 284 284 284 285 285 285 285 285 285 285 285 285 285 285 285
289 287 284 292 287 292 292 290 293 299 298 298 299 298 296 296 295 295 297 297 294 293 290 287 287 286 286 285 284 284 283 284 284 284 284 284 285 284 284 285 284 284 284 284
290 287 284 290 284 286 290 292 293 295 296 292 293 291 291 292 296 299 292 292 294 291 290 289 288 286 285 285 284 284 283 283 283 283 283 284 284 284 284 284 284 283 283 282
289 285 286 278 283 284 288 292 292 293 289 290 291 292 292 296 298 296 288 288 289 291 290 288 287 286 285 284 284 283 283 282 282 281 281 282 282 283 283 282 281 281 282 282
278 275 279 284 277 282 285 290 291 287 289 289 290 291 292 294 295 291 286 288 287 287 288 287 286 286 285 284 283 283 282 282 282 282 282 281 281 281 281 281 280 279 279 279
284 280 277 278 279 284 285 289 291 289 289 290 290 291 291 291 289 288 287 287 286 285 285 285 285 285 285 284 284 282 282 282 282 281 281 281 280 280 280 280 280 279 279 278
284 284 282 284 286 284 283 289 288 288 289 289 290 289 290 289 283 281 280 279 283 284 284 284 285 284 283 284 285 284 285 284 282 281 281 280 279 279 279 278 278 278 278 277
285 280 286 285 284 285 285 284 287 287 287 288 289 289 288 284 279 280 276 277 281 283 284 283 284 283 283 283 284 285 285 284 281 280 279 278 278 278 277 277 277 276 276 275
285 285 285 286 285 281 284 283 285 284 282 282 280 282 283 281 283 280 278 278 281 282 283 283 283 284 284 285 285 284 283 282 281 280 279 278 277 276 276 275 275 275 275 275
283 287 290 290 288 288 286 281 279 281 282 283 280 279 279 282 283 281 279 283 283 282 282 282 283 283 284 284 283 282 280 280 280 278 277 277 277 276 275 274 274 274 274 274
Wind_Speed
6 4 9 5 4 9 11 4 3 5 3 2 5 10 11 6 1 4 6 6 6 7 1 3 5 15 21 24 25 27 28 29 28 27 26 23 24 20 20 19 18 18 17 18
5 6 6 8 6 7 7 5 4 4 7 3 0 11 15 7 4 4 5 6 7 1 5 9 10 5 11 16 24 27 30 30 31 30 30 26 24 23 21 20 19 19 20 19
8 4 9 7 6 6 1 8 5 3 5 4 6 4 9 4 4 4 2 2 4 4 5 6 13 13 9 9 11 15 22 28 30 32 29 26 17 19 21 21 21 21 20 20
3 1 10 9 7 6 4 5 5 8 6 1 1 3 4 5 6 4 7 2 7 7 6 7 12 16 13 9 2 5 10 12 19 25 27 28 23 21 25 22 21 25 25 24
1 4 6 6 5 6 4 6 5 4 5 2 5 2 5 2 4 4 7 7 7 7 7 7 11 13 14 13 10 6 3 6 10 16 21 26 25 22 19 20 21 22 23 24
1 1 5 6 4 8 8 5 5 4 3 3 6 5 4 3 2 4 3 5 7 7 6 9 12 13 15 15 13 11 8 6 1 4 12 15 19 20 16 16 17 19 21 22
3 4 4 2 7 2 3 14 2 2 1 4 1 2 5 4 4 3 3 6 8 5 6 8 12 16 18 18 16 13 12 11 8 4 2 4 8 12 13 13 15 16 16 17
4 3 3 0 4 6 3 4 4 6 3 3 1 4 3 3 4 6 8 8 8 8 7 8 11 13 15 15 16 14 13 12 10 7 6 4 3 3 7 10 11 10 9 9
4 2 2 2 3 4 4 3 2 6 1 2 3 3 4 3 5 6 5 6 6 5 6 6 12 12 13 14 14 13 12 11 11 9 8 7 4 0 2 3 5 4 4 4
3 5 2 2 4 1 5 7 2 2 3 2 1 1 2 4 4 3 3 4 3 3 4 5 8 10 10 10 10 11 12 12 11 10 9 9 7 3 3 5 7 7 6 3
3 3 0 2 4 1 3 2 3 4 3 3 3 2 1 2 5 4 4 4 3 3 3 3 6 7 9 10 11 11 12 11 11 11 11 10 9 7 6 8 9 9 9 8
2 4 4 3 2 2 1 3 3 3 2 1 2 2 2 2 3 4 4 4 3 3 3 3 5 6 9 10 9 10 10 11 10 10 10 12 11 11 12 12 12 12 13 13
2 2 3 3 3 3 3 2 3 4 3 2 3 2 2 3 1 3 5 4 3 3 2 2 4 6 7 8 8 8 8 9 9 8 9 11 12 12 14 15 15 16 17 16
5 3 3 4 2 3 4 3 3 5 3 2 3 1 4 5 6 3 3 4 5 4 4 2 2 3 5 6 7 7 8 8 9 10 11 13 13 14 15 16 17 18 19 19
4 4 3 5 4 3 2 5 5 3 3 4 3 4 5 4 2 4 3 6 6 6 5 5 3 2 2 3 6 8 9 10 10 13 15 16 16 16 17 18 19 20 20 20
4 2 2 6 8 6 3 3 6 3 2 2 3 4 4 4 3 2 4 6 6 6 6 6 5 6 5 3 4 7 9 11 12 14 16 16 17 17 19 19 20 20 20 19
2 4 3 2 4 4 4 4 4 2 2 6 4 6 4 5 7 5 6 5 7 6 6 7 6 10 8 7 5 7 9 10 12 14 13 14 16 17 17 17 18 19 19 18
4 4 3 2 2 1 4 3 2 2 2 4 3 5 4 5 6 7 5 4 6 6 6 7 13 11 10 8 8 7 8 9 10 12 12 12 13 15 14 15 16 16 16 16
5 4 3 3 2 4 3 3 5 5 3 4 3 4 4 5 3 1 5 4 2 6 11 14 16 16 14 12 11 10 8 7 8 9 10 10 10 12 12 13 13 14 14 14
6 8 4 3 5 4 5 1 1 3 3 4 2 2 4 5 2 3 5 4 5 2 9 15 17 16 15 14 12 11 10 8 7 7 7 8 9 9 10 10 10 12 11 12
4 4 4 2 1 7 7 2 0 6 4 5 4 3 1 0 3 4 4 4 2 1 8 15 17 18 16 15 13 12 10 9 8 7 7 7 7 8 8 8 8 7 8 9
4 5 2 3 3 7 6 3 5 5 3 6 5 3 2 3 5 4 5 4 2 4 10 14 19 18 17 17 15 14 12 10 10 9 9 9 9 8 8 7 7 7 7 7
2 6 4 8 5 5 5 3 3 4 5 5 4 5 4 3 4 2 4 3 3 6 10 16 18 17 18 19 19 17 14 13 13 12 11 10 10 8 8 7 7 7 8 7
4 3 3 3 5 9 7 5 5 5 6 4 4 5 5 5 4 4 3 5 8 11 14 16 18 19 19 19 18 16 14 14 14 13 12 10 10 9 8 8 7 7 7 8
4 5 5 5 6 4 6 7 6 4 3 3 3 4 6 5 5 5 4 8 13 14 15 19 21 21 20 19 18 16 14 15 16 15 13 12 10 8 7 7 7 7 8 8
5 7 5 7 6 5 5 4 4 5 7 8 5 3 5 7 6 4 7 11 14 16 16 18 20 19 17 16 17 17 15 15 15 15 14 13 12 11 10 10 10 9 9 8
Wind_Direction
160 139 199 128 129 114 117 95 155 97 49 30 341 293 298 304 252 231 208 231 246 240 334 100 227 219 216 213 209 210 208 209 208 208 209 215 212 220 227 230 236 238 238 237
141 205 152 148 133 127 123 111 252 112 114 208 230 294 291 293 260 206 203 190 224 164 85 40 43 122 200 204 213 216 218 215 212 212 211 214 217 222 232 235 237 244 243 243
147 184 156 153 141 125 69 179 192 150 114 327 348 259 249 279 248 153 243 194 93 151 112 39 41 52 81 147 191 207 225 228 220 214 214 212 222 227 226 236 238 241 241 243
140 81 157 149 167 149 124 183 203 135 114 66 304 301 235 214 250 207 199 210 71 63 51 36 33 40 42 46 94 223 225 231 230 225 220 219 216 219 228 235 248 247 246 249
43 111 137 154 176 153 146 143 139 117 117 148 166 215 258 146 227 253 62 71 65 61 57 39 29 36 40 37 38 45 115 172 193 208 225 231 228 236 234 239 245 249 253 255
98 111 135 176 139 166 135 97 59 68 108 241 192 173 279 113 8 69 70 72 73 66 56 45 32 33 32 35 40 41 53 61 97 205 214 223 231 233 236 240 245 252 260 255
63 351 323 126 111 93 123 148 90 59 351 216 339 130 253 23 20 300 207 110 91 61 52 41 29 18 19 23 27 34 42 41 37 25 281 262 235 235 236 244 250 259 259 251
141 178 249 323 139 156 149 169 150 168 170 187 155 216 293 47 51 44 61 83 77 66 50 50 43 28 23 24 26 28 32 38 38 36 30 345 288 250 240 240 241 235 231 237
132 67 308 74 106 142 170 183 143 106 232 127 179 236 96 90 66 68 66 61 63 58 52 44 44 35 28 26 30 28 32 37 39 45 40 28 18 137 150 184 196 196 206 221
179 103 12 102 111 312 161 155 92 22 137 190 17 272 119 6 14 142 143 123 114 94 62 46 45 34 33 36 35 38 40 41 43 48 56 52 47 54 108 126 126 135 129 132
133 83 10 86 20 95 89 91 48 109 84 144 125 260 153 340 311 215 178 184 156 107 90 65 54 43 36 37 41 44 45 46 51 55 60 65 69 77 95 102 104 113 118 114
27 109 96 81 18 344 74 138 128 126 258 32 99 293 337 52 342 126 179 176 157 125 108 90 67 51 47 44 46 48 51 55 60 67 74 76 81 86 90 92 93 101 103 106
180 16 92 41 11 12 80 84 107 99 72 189 114 273 3 322 234 185 175 209 197 161 148 79 67 62 53 47 48 50 54 59 64 80 92 95 91 90 90 93 95 98 99 102
60 67 127 162 146 131 130 114 74 99 112 158 196 289 238 274 276 273 228 172 191 204 198 169 107 71 69 68 60 61 62 70 81 90 94 95 95 96 98 99 98 100 101 101
77 98 55 49 10 65 122 141 136 121 154 133 221 202 248 224 229 262 232 167 185 202 202 198 184 152 106 80 80 75 71 77 89 97 97 95 98 100 101 100 99 99 99 98
4 123 103 27 3 30 64 87 109 105 95 41 94 276 302 307 4 49 210 198 211 212 201 199 169 174 186 166 114 100 94 92 98 98 96 101 103 101 98 100 101 101 100 100
63 119 62 282 346 7 352 225 175 159 160 141 166 236 336 326 327 348 337 220 219 213 199 191 187 180 179 172 156 130 117 112 110 107 103 104 105 102 100 101 102 101 100 101
112 84 49 139 20 61 249 338 322 204 263 216 277 274 287 277 286 291 282 263 224 216 201 181 182 180 175 172 158 141 127 125 120 112 110 111 111 110 111 110 105 104 104 102
39 106 75 120 159 283 331 185 153 168 266 179 204 305 292 297 270 10 7 342 294 193 201 195 187 175 170 170 161 150 137 133 128 125 127 125 125 124 123 120 119 116 114 109
55 58 99 68 118 183 239 186 216 98 307 181 158 286 307 320 38 261 333 326 345 127 171 167 170 168 169 168 168 160 151 155 156 147 141 139 142 141 138 133 133 131 130 124
19 7 110 98 148 290 248 233 226 87 227 169 188 201 288 35 215 269 311 332 9 90 163 164 167 171 175 172 173 171 170 176 176 169 162 160 159 154 149 144 142 138 136 132
160 128 164 83 61 286 184 82 167 201 183 169 188 203 225 232 293 289 300 313 327 147 154 173 170 176 180 179 180 182 185 186 186 186 183 178 174 171 171 168 164 160 155 157
311 179 180 184 211 240 242 232 235 177 160 198 181 199 215 238 239 272 265 270 240 199 178 181 180 177 185 187 191 196 197 196 196 196 197 191 186 184 185 190 190 184 183 184
251 162 204 90 253 231 241 254 240 213 213 191 211 199 189 214 219 239 234 231 215 203 196 189 183 185 192 197 202 208 206 205 203 199 200 204 204 200 200 199 203 204 205 202
202 130 184 259 272 326 264 232 234 238 234 245 246 213 216 187 234 220 238 237 229 216 202 197 201 205 208 206 210 213 213 207 205 203 204 208 217 213 213 218 222 227 226 227
186 196 181 234 206 172 226 233 172 192 231 237 186 251 235 210 233 225 248 247 226 218 216 214 216 222 222 218 217 214 214 213 214 213 213 214 218 221 224 226 230 234 236 237